全部
Kardla Airport (Kardla, Hiiumaa) KDL 天氣
|
Kardla, Hiiumaa (KDL / EEKA)
晴天
多風 |
|
17 °C |
KDL終端機場天氣預報
| Date | Time (EEST) | Flight Rules | Wind Dir. | Speed | Type | Height AGL (ft) | Visibility | Remarks | ||||||
|---|---|---|---|---|---|---|---|---|---|---|---|---|---|---|
KDL近期METAR歷史資料
| Date | Time (EEST) | Flight Rules | Wind Dir. | Speed | Type | Height AGL (ft) | Visibility | Temp (°C) | Temp (°F) | Dew Point (°C) | Dew Point (°F) | Rel. Humid. | Pressure | Density Altitude | Remarks |
|---|---|---|---|---|---|---|---|---|---|---|---|---|---|---|---|
| 02-五月 | 18:20 | VFR | 230° | 14 kt | 10000 meters | 17° | 62° | 3° | 37° | 39% | 1012 mb | 294 ft | Wind gusting to 24 KT | ||
| 02-五月 | 17:50 | VFR | 240° | 13 kt | 10000 meters | 17° | 62° | 4° | 39° | 42% | 1012 mb | 294 ft | |||
| 02-五月 | 17:20 | VFR | 250° | 12 kt | 10000 meters | 17° | 62° | 3° | 37° | 39% | 1012 mb | 294 ft | Wind gusting to 24 KT | ||
| 02-五月 | 16:50 | VFR | 250° | 9 kt | 10000 meters | 17° | 62° | 5° | 41° | 45% | 1012 mb | 294 ft | |||
| 02-五月 | 16:20 | VFR | 250° | 10 kt | 10000 meters | 17° | 62° | 4° | 39° | 42% | 1013 mb | 264 ft | |||
| 02-五月 | 15:50 | VFR | 240° | 9 kt | 10000 meters | 17° | 62° | 3° | 37° | 39% | 1013 mb | 264 ft | |||
| 02-五月 | 15:20 | VFR | 250° | 8 kt | 10000 meters | 18° | 64° | 3° | 37° | 37% | 1013 mb | 384 ft | |||
| 02-五月 | 14:50 | VFR | 250° | 10 kt | 10000 meters | 18° | 64° | 3° | 37° | 37% | 1013 mb | 384 ft | |||
| 02-五月 | 14:20 | VFR | 240° | 9 kt | 10000 meters | 17° | 62° | 3° | 37° | 39% | 1013 mb | 264 ft | |||
| 02-五月 | 13:50 | VFR | 230° | 11 kt | 10000 meters | 17° | 62° | 3° | 37° | 39% | 1013 mb | 264 ft | |||
| 02-五月 | 13:20 | VFR | 240° | 10 kt | 10000 meters | 16° | 60° | 4° | 39° | 45% | 1014 mb | 115 ft | |||
| 02-五月 | 12:50 | VFR | 250° | 9 kt | 10000 meters | 17° | 62° | 4° | 39° | 42% | 1014 mb | 235 ft | Wind gusting to 21 KT | ||
| 02-五月 | 12:20 | VFR | 260° | 9 kt | 10000 meters | 17° | 62° | 3° | 37° | 39% | 1014 mb | 235 ft | |||
| 02-五月 | 11:50 | VFR | 280° | 9 kt | 10000 meters | 17° | 62° | 2° | 35° | 36% | 1014 mb | 235 ft | Wind gusting to 20 KT | ||
| 02-五月 | 11:20 | VFR | 270° | 12 kt | 10000 meters | 16° | 60° | 2° | 35° | 39% | 1014 mb | 115 ft | |||
| 02-五月 | 10:50 | VFR | 270° | 11 kt | 10000 meters | 15° | 59° | 2° | 35° | 41% | 1014 mb | -5 ft | |||
| 02-五月 | 10:20 | VFR | 290° | 12 kt | 10000 meters | 15° | 59° | 2° | 35° | 41% | 1014 mb | -5 ft | |||
| 02-五月 | 09:50 | VFR | 270° | 12 kt | 10000 meters | 15° | 59° | 3° | 37° | 44% | 1014 mb | -5 ft | |||
| 02-五月 | 09:20 | VFR | 280° | 9 kt | 10000 meters | 14° | 57° | 2° | 35° | 44% | 1014 mb | -125 ft | |||
| 02-五月 | 08:50 | VFR | 280° | 11 kt | 10000 meters | 14° | 57° | 3° | 37° | 47% | 1014 mb | -125 ft | Wind gusting to 22 KT | ||
| 02-五月 | 08:20 | VFR | 270° | 10 kt | 10000 meters | 13° | 55° | 2° | 35° | 47% | 1014 mb | -245 ft | |||
| 02-五月 | 07:50 | VFR | 270° | 9 kt | 10000 meters | 13° | 55° | 2° | 35° | 47% | 1014 mb | -245 ft | |||
| 02-五月 | 07:20 | VFR | 280° | 10 kt | 10000 meters | 13° | 55° | 2° | 35° | 47% | 1014 mb | -245 ft | |||
| 02-五月 | 06:50 | VFR | 270° | 7 kt | 10000 meters | 13° | 55° | 2° | 35° | 47% | 1014 mb | -245 ft |
登入
| 您的瀏覽器不支援. 升級您的瀏覽器 |
